Grinnell Municipal Airfield
Monday 5:15 PM
Temperature86° (89°/67°)
Dew Point69°
Feels Like91°
Relative Humidity57
%
Visibility10
mi
Pressure1015.9
mb
Wind Direction
Wind SpeedCalm
Precipitation Today0.00"

Last 30 Observations

Time PresWx Temp DP Feels RH% Vsby Pressure Ceiling Direction Speed 1h Precip
5:15 PM 86° 69° 91°57
%
10
mi
1015.9
mb
Calm 0.00"
4:55 PM 89° 67° 92°49
%
10
mi
1015.9
mb
S
170°
7
mph
0.00"
4:35 PM 89° 67° 91°49
%
10
mi
1015.9
mb
SSW
210°
6
mph
0.00"
4:15 PM 89° 66° 91°47
%
10
mi
1015.9
mb
SW
230°
3
mph
0.00"
3:55 PM 88° 65° 90°46
%
10
mi
1016.3
mb
SW
220°
6
mph
0.00"
3:35 PM 89° 65° 90°46
%
10
mi
1016.3
mb
SW
220°
5
mph
0.00"
3:15 PM 89° 65° 91°45
%
10
mi
1016.6
mb
S
170°
3
mph
0.00"
2:55 PM 88° 65° 90°46
%
10
mi
1016.9
mb
SSW
210°
6
mph
0.00"
2:35 PM 88° 65° 89°46
%
10
mi
1016.9
mb
WSW
250°
5
mph
0.00"
2:15 PM 88° 65° 90°47
%
10
mi
1016.9
mb
Calm 0.00"
1:55 PM 88° 65° 90°46
%
10
mi
1016.9
mb
SSW
200°
3
mph
0.00"
1:35 PM 88° 66° 90°49
%
10
mi
1017.3
mb
SSW
210°
5
mph
0.00"
1:15 PM 87° 65° 88°49
%
10
mi
1017.3
mb
WSW
250°
3
mph
0.00"
12:55 PM 87° 66° 89°50
%
10
mi
1017.3
mb
SW
220°
6
mph
0.00"
12:35 PM 86° 65° 88°49
%
10
mi
1017.3
mb
Calm 0.00"
12:15 PM 86° 67° 89°53
%
10
mi
1017.3
mb
Calm 0.00"
11:55 AM 85° 67° 88°54
%
10
mi
1017.3
mb
S
180°
3
mph
0.00"
11:35 AM 86° 66° 88°52
%
10
mi
1017.6
mb
Calm 0.00"
11:15 AM 85° 69° 89°58
%
10
mi
1017.6
mb
SW
230°
3
mph
0.00"
10:55 AM 85° 70° 89°61
%
10
mi
1018.0
mb
W
260°
5
mph
0.00"
10:35 AM 84° 70° 88°62
%
10
mi
1018.3
mb
WSW
240°
6
mph
0.00"
10:15 AM 84° 71° 88°66
%
10
mi
1018.3
mb
SW
230°
6
mph
0.00"
9:55 AM 82° 70° 87°67
%
10
mi
1018.3
mb
W
270°
6
mph
0.00"
9:35 AM 82° 70° 85°69
%
10
mi
1018.3
mb
WSW
250°
5
mph
0.00"
9:15 AM 81° 69° 84°69
%
10
mi
1018.0
mb
W
270°
6
mph
0.00"
8:55 AM 80° 70° 83°73
%
10
mi
1018.0
mb
WSW
240°
3
mph
0.00"
8:35 AM 78° 70° 79°77
%
10
mi
1018.0
mb
Calm 0.00"
8:15 AM 77° 70° 78°78
%
10
mi
1017.6
mb
WNW
290°
5
mph
0.00"
7:55 AM 76° 70° 77°80
%
10
mi
1017.6
mb
Calm 0.00"
7:35 AM 74° 69° 75°84
%
10
mi
1017.6
mb
Calm 0.00"